Location: Vancouver
(49.2500°N, 123.1330°W)
Time: 07:01:46
(UTC-08:00)

SO-67 - Visible Passes

Search period start: 13 December 2017 00:00
Search period end: 23 December 2017 00:00
Orbit: 397 x 402 km, 97.1° (Epoch: 13 December)

Date Brightness Start Highest point End Pass type
(mag) Time Alt. Az. Time Alt. Az. Time Alt. Az.
13 Dec ? 18:06:16 10° SSE 18:09:19 61° ENE 18:12:24 10° N visible
14 Dec ? 06:48:20 10° NE 06:51:05 28° E 06:53:49 10° SSE visible
14 Dec ? 17:17:21 10° ESE 17:21:30 - NNE 17:19:06 15° ENE visible
14 Dec ? 18:47:54 10° SSW 18:50:46 34° W 18:51:44 27° WNW visible
15 Dec ? 17:57:25 10° SSE 18:00:22 45° ENE 18:03:22 10° N visible
15 Dec ? 19:31:27 10° WSW 19:32:26 11° W 19:33:24 10° WNW visible
16 Dec ? 06:39:33 10° NE 06:42:04 22° E 06:44:33 10° SSE visible
16 Dec ? 17:09:00 10° E 17:10:20 12° ENE 17:10:44 12° NE visible
16 Dec ? 18:38:46 10° S 18:41:45 45° W 18:44:45 10° NNW visible
17 Dec ? 07:20:27 10° NNE 07:23:34 80° E 07:26:40 10° S visible
17 Dec ? 17:48:34 10° SE 17:51:25 34° ENE 17:54:16 10° N visible
17 Dec ? 19:21:35 10° SW 19:23:21 14° W 19:25:07 10° WNW visible
18 Dec ? 06:30:49 10° NE 06:33:00 17° E 06:35:09 10° SE visible
18 Dec ? 18:29:39 10° S 18:32:43 61° W 18:35:48 10° NNW visible
19 Dec ? 07:11:27 10° NNE 07:14:32 59° E 07:17:36 10° S visible
19 Dec ? 17:39:45 10° SE 17:42:25 27° ENE 17:45:06 10° N visible
19 Dec ? 19:12:01 10° SW 19:14:15 18° W 19:16:28 10° NW visible
20 Dec ? 06:22:12 10° ENE 06:23:53 14° E 06:25:34 10° SE visible
20 Dec ? 18:20:34 10° SSE 18:23:39 84° WSW 18:26:46 10° NNW visible
21 Dec ? 07:02:28 10° NNE 07:05:27 43° E 07:08:25 10° S visible
21 Dec ? 17:30:59 10° ESE 17:33:24 21° ENE 17:35:51 10° NNE visible
21 Dec ? 19:02:34 10° SSW 19:05:06 23° W 19:07:39 10° NW visible
22 Dec ? 06:13:57 10° ENE 06:14:43 11° E 06:15:29 10° ESE visible
22 Dec ? 18:11:29 10° SSE 18:14:34 72° ENE 18:17:40 10° N visible
